Simultaneous Nadir Overpasses (SNOs) Predictions

Prediction of SNOs between AQUA and GOES-15 Satellite Orbit:

Table of predicted SNOs for the next 14.0 days since TLE Epoch: 3/22/2019
Index Date Time (AQUA) AQUA Lat,Lon GOES-15 Lat,Lon Distance(km) Time Diff (sec)
1 03/24/2019 22:10:41 -0.13,-128.67 -0.03,-128.24 49.31 80
2 03/26/2019 21:58:31 0.51,-125.72 -0.03,-128.21 283.02 80
3 03/27/2019 10:19:47 0.61,-130.88 0.04,-128.23 301.34 80
4 03/29/2019 10:07:37 -0.04,-127.93 0.04,-128.19 30.59 80
5 03/31/2019 09:55:26 -0.63,-124.97 0.05,-128.15 362.05 80
6 03/31/2019 22:16:50 -0.46,-130.16 -0.05,-128.11 232.42 80
7 04/02/2019 22:04:39 0.14,-127.20 -0.05,-128.07 98.80 80
8 04/03/2019 10:25:55 0.99,-132.35 0.05,-128.09 486.10 80
9 04/04/2019 21:52:28 0.75,-124.24 -0.05,-128.02 429.62 80
10 04/05/2019 10:13:45 0.33,-129.41 0.05,-128.04 155.39 80




NCC Satellite Simultaneous Nadir Overpasses (SNOs) Prediction Service
